Flag for Canada Weather past 2 weeks in Kelowna, British Columbia, Canada

Now
34 °F

Overcast.


Feels Like: 31 °F
Forecast: 31 / 38 °F
Wind: 3 mph from Northeast

Location: Kelowna Airport

Current Time: Dec 17, 2014 at 5:24:43 PM

Latest Report: Dec 17, 2014 at 4:00 PM


Visibility: 9 mi

Pressure: 29.99 "Hg

Humidity: 81%

Dew point: 28 °F

Location of KelownaLocation

Historic Weather in Kelowna — Graph

°F

Kelowna temperature yesterday

Maximum temperature yesterday: 32 °F (at 3:00 PM)
Minimum temperature yesterday: 23 °F (at 1:00 AM)
Average temperature yesterday: 27 °F

Past Weeks' High & Low Weather Summary

 TemperatureHumidityPressure
High54 °F (Dec 10, 7:48 PM)100% (Dec 5, 3:56 AM)30.40 "Hg (Dec 5, 3:56 AM)
Low9 °F (Dec 2, 11:00 PM)63% (Dec 10, 7:48 PM)29.34 "Hg (Dec 10, 9:00 PM)
Average31 °F91%30.06 "Hg
* Reported Dec 2 4:00 PM — Dec 17 4:00 PM, Kelowna, Weather by CustomWeather, © 2014

Note: Actual official high and low records may vary slightly from our data, if they occured in-between our weather recording intervals... More about our weather records

Advertising

Kelowna weather history for previous 24 hours

 ConditionsComfort  
Time TempWeatherWind HumidityBarometerVisibility
4:00 PM
Dec 17
34 °FOvercast.3 mph81%29.99 "Hg9 mi
3:00 PM34 °FLight rain. Overcast.No wind81%29.99 "Hg9 mi
2:00 PM36 °FMore clouds than sun.No wind75%29.98 "Hg9 mi
1:00 PM34 °FOvercast.No wind81%29.99 "Hg9 mi
12:00 PM34 °FBroken clouds.2 mph87%30.00 "Hg9 mi
11:00 AM32 °FMostly cloudy.2 mph93%30.02 "Hg9 mi
10:00 AM32 °FMostly cloudy.2 mph87%30.03 "Hg9 mi
9:00 AM30 °FOvercast.No wind93%30.03 "Hg9 mi
8:00 AM30 °FOvercast.3 mph93%30.02 "Hg9 mi
7:00 AM28 °FOvercast.5 mph100%30.01 "Hg9 mi
6:00 AM30 °FOvercast.No wind93%30.02 "Hg9 mi
5:00 AM30 °FOvercast.No wind93%30.02 "Hg9 mi
4:00 AM28 °FOvercast.2 mph100%30.03 "Hg9 mi
3:00 AM28 °FOvercast.2 mph93%30.03 "Hg9 mi
2:00 AM28 °FOvercast.3 mph93%30.03 "Hg9 mi
1:00 AM28 °FOvercast.No wind93%30.03 "Hg9 mi
12:00 AM28 °FOvercast.No wind93%30.05 "Hg9 mi
11:00 PM
Dec 16
28 °FOvercast.3 mph93%30.04 "Hg9 mi
10:00 PM27 °FOvercast.2 mph93%30.05 "Hg9 mi
9:00 PM27 °FClear.2 mph93%30.05 "Hg9 mi
8:00 PM28 °FClear.No wind93%30.04 "Hg9 mi
7:00 PM30 °FPassing clouds.No wind86%30.04 "Hg9 mi
6:00 PM30 °FOvercast.No wind86%30.04 "Hg9 mi
5:00 PM30 °FOvercast.2 mph86%30.04 "Hg9 mi
Weather by CustomWeather, © 2014

See weather overviewHow to use our weather pages